Regional Weather Roundup
Issued by NWS

Home | Current Version | Previous Version | Text Only | Print | Product List | Glossary On
Versions: 1 2 3 4 5 6 7 8 9 10 11 12 13 14 15 16 17 18 19 20 21 22 23 24 25 26 27 28
000
ASUS45 KREV 170710
RWRNV
NEVADA REGIONAL WEATHER ROUNDUP
NATIONAL WEATHER SERVICE RENO NV
1100 PM PST TUE JAN 16 2018

NOTE: "FAIR" INDICATES FEW OR NO CLOUDS BELOW 12,000 FEET WITH NO
SIGNIFICANT WEATHER AND/OR OBSTRUCTIONS TO VISIBILITY.

NVZ001-003-004-170800-
WESTERN NEVADA

CITY           SKY/WX    TMP DP  RH WIND       PRES   REMARKS
RENO           PTCLDY    40  33  76 SW3       30.31R
CARSON CITY    FAIR      34  30  86 CALM      30.33S
MINDEN         FAIR      28  28 100 E7        30.34R
SLIDE MTN        N/A     30  30 100 SW21        N/A
PYRAMID LAKE     N/A     45 N/A N/A N2          N/A
FALLON         PTCLDY    35  23  61 CALM      30.30R
LOVELOCK       PTCLDY    39  33  79 NE6       30.29S
HAWTHORNE      CLEAR     39  27  60 CALM      30.29R
$$

NVZ002-CAZ072-073-170800-
NORTHERN AND CENTRAL SIERRA

CITY           SKY/WX    TMP DP  RH WIND       PRES   REMARKS
S. LAKE TAHOE  PTCLDY    30  28  92 CALM      30.32R
TRUCKEE        CLEAR     30  30 100 CALM      30.33S
SQUAW VLY 8000   N/A     36  34  93 S9          N/A
SUSANVILLE     PTCLDY    36  36 100 CALM      30.30R
BLUE CANYON    PTCLDY    45  33  63 E3        30.31R
MAMMOTH LAKES  FAIR      29  22  75 CALM      30.36S
$$

NVZ030-031-036-170800-
NORTHERN NEVADA

CITY           SKY/WX    TMP DP  RH WIND       PRES   REMARKS
ELKO           CLEAR     31  29  92 N5        30.32F
WINNEMUCCA     PTCLDY    35  30  82 E10       30.31R
WENDOVER       MOCLDY    27  21  78 CALM      30.36S
$$

NVZ035-037-170800-
CENTRAL NEVADA

CITY           SKY/WX    TMP DP  RH WIND       PRES   REMARKS
ELY            CLOUDY    31  24  75 S8        30.34S
$$

NVZ013-014-170800-
SOUTH CENTRAL NEVADA

CITY           SKY/WX    TMP DP  RH WIND       PRES   REMARKS
TONOPAH        PTCLDY    37  28  70 N8        30.31R
$$

NVZ017-020-022-170800-
SOUTHERN NEVADA

CITY           SKY/WX    TMP DP  RH WIND       PRES   REMARKS
LAS VEGAS      CLOUDY    52  37  56 SW3       30.22S
N. LAS VEGAS   CLOUDY    49  38  65 NW7       30.23R
NELLIS AFB     MOCLDY    47  39  74 SW1       30.23S
HENDERSON      CLOUDY    47  36  65 S6        30.24S
MERCURY        MOCLDY    47  35  63 CALM      30.25R
$$




USA.gov is the U.S. government's official web portal to all federal, state and local government web resources and services.